When you browse on this site, cookies collect data to enhance your experience and personalize the content and advertising you see.
Visit our Privacy Policy to learn more. By continuing to use the site, you agree to this use of cookies and data.
EN

Hourly Weather Alfena

Today, 11 August, Tuesday

Time Temperature Precipitation Wind Pressure Humidity
00:00 +19°C° 0 mm 2 mps 749 mmHg 86%
01:00 +19°C° 0 mm 2 mps 748 mmHg 87%
02:00 +19°C° 0 mm 2 mps 748 mmHg 88%
03:00 +19°C° 0 mm 2 mps 748 mmHg 88%
04:00 +18°C° 0 mm 2 mps 748 mmHg 88%
05:00 +19°C° 0 mm 1 mps 748 mmHg 88%
06:00 +21°C° 0 mm 1 mps 748 mmHg 79%
07:00 +23°C° 0 mm 1 mps 749 mmHg 70%
08:00 +26°C° 0 mm 1 mps 749 mmHg 62%
09:00 +27°C° 0 mm 2 mps 749 mmHg 56%
10:00 +29°C° 0 mm 2 mps 749 mmHg 50%
11:00 +30°C° 0 mm 2 mps 749 mmHg 44%
12:00 +30°C° 0 mm 3 mps 748 mmHg 46%
13:00 +29°C° 0 mm 3 mps 748 mmHg 48%
14:00 +29°C° 0 mm 3 mps 747 mmHg 50%
15:00 +28°C° 0 mm 3 mps 748 mmHg 53%
16:00 +27°C° 0 mm 3 mps 748 mmHg 56%
17:00 +26°C° 0 mm 2 mps 748 mmHg 60%
18:00 +25°C° 0 mm 2 mps 749 mmHg 66%
19:00 +23°C° 0 mm 1 mps 749 mmHg 73%
20:00 +21°C° 0 mm 1 mps 750 mmHg 80%
21:00 +21°C° 0 mm 1 mps 750 mmHg 81%
22:00 +21°C° 0 mm 1 mps 750 mmHg 83%
23:00 +21°C° 0 mm 1 mps 750 mmHg 84%

Tomorrow, 12 August, Wednesday

Time Temperature Precipitation Wind Pressure Humidity
00:00 +20°C° 0 mm 1 mps 750 mmHg 86%
01:00 +20°C° 0 mm 1 mps 750 mmHg 89%
02:00 +19°C° 0 mm 1 mps 750 mmHg 91%
03:00 +19°C° 0 mm 1 mps 750 mmHg 91%
04:00 +19°C° 0 mm 1 mps 750 mmHg 91%
05:00 +19°C° 0 mm 1 mps 751 mmHg 91%
06:00 +21°C° 0 mm 1 mps 751 mmHg 82%
07:00 +23°C° 0 mm 1 mps 751 mmHg 72%
08:00 +26°C° 0 mm 1 mps 751 mmHg 63%
09:00 +26°C° 0 mm 2 mps 752 mmHg 60%
10:00 +27°C° 0 mm 2 mps 752 mmHg 56%
11:00 +28°C° 0 mm 3 mps 752 mmHg 53%
12:00 +28°C° 0 mm 3 mps 752 mmHg 54%
13:00 +28°C° 0 mm 4 mps 752 mmHg 54%
14:00 +28°C° 0 mm 4 mps 752 mmHg 55%
15:00 +27°C° 0 mm 4 mps 752 mmHg 57%
16:00 +27°C° 0 mm 4 mps 751 mmHg 58%
17:00 +26°C° 0 mm 4 mps 751 mmHg 59%
18:00 +23°C° 0 mm 4 mps 752 mmHg 66%
19:00 +22°C° 0 mm 3 mps 752 mmHg 72%
20:00 +20°C° 0 mm 3 mps 753 mmHg 78%
21:00 +20°C° 0 mm 3 mps 753 mmHg 80%
22:00 +19°C° 0 mm 2 mps 753 mmHg 81%
23:00 +19°C° 0 mm 2 mps 753 mmHg 83%

Day after tomorrow, 13 August, Thursday

Time Temperature Precipitation Wind Pressure Humidity
00:00 +18°C° 0 mm 2 mps 753 mmHg 83%
01:00 +18°C° 0 mm 2 mps 753 mmHg 84%
02:00 +19°C° 0 mm 1 mps 753 mmHg 84%
03:00 +19°C° 0 mm 1 mps 753 mmHg 85%
04:00 +18°C° 0 mm 1 mps 753 mmHg 86%
05:00 +18°C° 0 mm 1 mps 753 mmHg 86%
06:00 +20°C° 0 mm 2 mps 753 mmHg 76%
07:00 +23°C° 0 mm 2 mps 753 mmHg 66%
08:00 +25°C° 0 mm 2 mps 754 mmHg 55%
09:00 +27°C° 0 mm 3 mps 754 mmHg 49%
10:00 +28°C° 0 mm 4 mps 753 mmHg 43%
11:00 +29°C° 0 mm 5 mps 753 mmHg 37%
12:00 +29°C° 0 mm 6 mps 753 mmHg 37%
13:00 +29°C° 0 mm 6 mps 753 mmHg 37%
14:00 +29°C° 0 mm 7 mps 753 mmHg 37%
15:00 +27°C° 0 mm 6 mps 753 mmHg 41%
16:00 +26°C° 0 mm 6 mps 753 mmHg 45%
17:00 +25°C° 0 mm 5 mps 752 mmHg 49%
18:00 +22°C° 0 mm 5 mps 753 mmHg 58%
19:00 +20°C° 0 mm 4 mps 753 mmHg 67%
20:00 +18°C° 0 mm 3 mps 754 mmHg 76%
21:00 +17°C° 0 mm 3 mps 754 mmHg 78%
22:00 +17°C° 0 mm 2 mps 753 mmHg 81%
23:00 +16°C° 0 mm 2 mps 753 mmHg 84%

14 August, Friday

Time Temperature Precipitation Wind Pressure Humidity
00:00 +16°C° 0 mm 1 mps 753 mmHg 84%
01:00 +15°C° 0 mm 1 mps 753 mmHg 84%
02:00 +15°C° 0 mm 1 mps 753 mmHg 84%
03:00 +15°C° 0 mm 1 mps 753 mmHg 84%
04:00 +15°C° 0 mm 1 mps 753 mmHg 84%
05:00 +14°C° 0 mm 0 mps 753 mmHg 84%
06:00 +18°C° 0 mm 1 mps 753 mmHg 74%
07:00 +21°C° 0 mm 1 mps 753 mmHg 64%
08:00 +24°C° 0 mm 1 mps 753 mmHg 54%
09:00 +25°C° 0 mm 2 mps 753 mmHg 51%
10:00 +26°C° 0 mm 2 mps 753 mmHg 48%
11:00 +27°C° 0 mm 3 mps 753 mmHg 45%
12:00 +26°C° 0 mm 4 mps 753 mmHg 47%
13:00 +26°C° 0 mm 4 mps 752 mmHg 48%
14:00 +26°C° 0 mm 4 mps 752 mmHg 50%
15:00 +25°C° 0 mm 4 mps 752 mmHg 53%
16:00 +24°C° 0 mm 3 mps 752 mmHg 57%
17:00 +22°C° 0 mm 3 mps 752 mmHg 60%
18:00 +20°C° 0 mm 2 mps 753 mmHg 68%
19:00 +20°C° 0 mm 1 mps 753 mmHg 75%
20:00 +18°C° 0 mm 1 mps 753 mmHg 83%
21:00 +18°C° 0 mm 1 mps 753 mmHg 84%
22:00 +15°C° 0 mm 0 mps 753 mmHg 85%
23:00 +15°C° 0 mm 0 mps 753 mmHg 87%

15 August, Saturday

Time Temperature Precipitation Wind Pressure Humidity
00:00 +15°C° 0 mm 0 mps 753 mmHg 87%
01:00 +14°C° 0 mm 0 mps 753 mmHg 88%
02:00 +14°C° 0 mm 0 mps 752 mmHg 88%
03:00 +14°C° 0 mm 0 mps 752 mmHg 88%
04:00 +15°C° 0 mm 1 mps 752 mmHg 89%
05:00 +15°C° 0 mm 1 mps 752 mmHg 89%
06:00 +18°C° 0 mm 1 mps 752 mmHg 79%
07:00 +21°C° 0 mm 1 mps 752 mmHg 70%
08:00 +23°C° 0 mm 1 mps 753 mmHg 60%
09:00 +24°C° 0 mm 2 mps 752 mmHg 58%
10:00 +24°C° 0 mm 3 mps 752 mmHg 55%
11:00 +25°C° 0 mm 3 mps 752 mmHg 53%
12:00 +25°C° 0 mm 4 mps 752 mmHg 52%
13:00 +25°C° 0 mm 4 mps 752 mmHg 51%
14:00 +25°C° 0 mm 4 mps 752 mmHg 51%
15:00 +25°C° 0 mm 4 mps 752 mmHg 55%
16:00 +23°C° 0 mm 4 mps 752 mmHg 59%
17:00 +22°C° 0 mm 3 mps 752 mmHg 64%
18:00 +20°C° 0 mm 3 mps 752 mmHg 72%
19:00 +19°C° 0 mm 2 mps 752 mmHg 80%
20:00 +17°C° 0 mm 2 mps 753 mmHg 88%
21:00 +17°C° 0 mm 2 mps 753 mmHg 90%
22:00 +17°C° 0 mm 2 mps 753 mmHg 91%
23:00 +16°C° 0 mm 2 mps 753 mmHg 92%

16 August, Sunday

Time Temperature Precipitation Wind Pressure Humidity
00:00 +16°C° 0 mm 2 mps 753 mmHg 92%
01:00 +16°C° 0 mm 2 mps 753 mmHg 92%
02:00 +16°C° 0 mm 2 mps 753 mmHg 92%
03:00 +16°C° 0 mm 1 mps 753 mmHg 92%
04:00 +15°C° 0 mm 1 mps 753 mmHg 91%
05:00 +15°C° 0 mm 1 mps 753 mmHg 91%
06:00 +18°C° 0 mm 1 mps 753 mmHg 82%
07:00 +20°C° 0 mm 1 mps 754 mmHg 72%
08:00 +22°C° 0 mm 1 mps 754 mmHg 63%
09:00 +23°C° 0 mm 2 mps 754 mmHg 58%
10:00 +24°C° 0 mm 3 mps 754 mmHg 52%
11:00 +25°C° 0 mm 4 mps 754 mmHg 47%
12:00 +25°C° 0 mm 4 mps 753 mmHg 48%
13:00 +25°C° 0 mm 4 mps 753 mmHg 49%
14:00 +25°C° 0 mm 5 mps 753 mmHg 50%
15:00 +23°C° 0 mm 5 mps 753 mmHg 52%
16:00 +22°C° 0 mm 4 mps 753 mmHg 54%
17:00 +22°C° 0 mm 4 mps 753 mmHg 55%
18:00 +20°C° 0 mm 3 mps 753 mmHg 66%
19:00 +18°C° 0 mm 3 mps 754 mmHg 77%
20:00 +17°C° 0 mm 2 mps 754 mmHg 88%
21:00 +16°C° 0 mm 2 mps 754 mmHg 88%
22:00 +16°C° 0 mm 2 mps 754 mmHg 89%
23:00 +16°C° 0 mm 1 mps 754 mmHg 90%
Show more